Weather History for Boise, ID

Change the Weather History Date:

Thursday, October 3, 2013

  Actual Average Record
Temperature  
Mean Temperature 49 °F 58 °F  
Max Temperature 57 °F 71 °F 91 °F (1963)
Min Temperature 40 °F 45 °F 28 °F (1877)
Degree Days  
Heating Degree Days 16 8  
Month to date heating degree days 47 22  
Since 1 July heating degree days 138 143  
Cooling Degree Days 0 1  
Month to date cooling degree days 0 3  
Year to date cooling degree days 1320 937  
Moisture  
Dew Point 32 °F    
Average Humidity 55    
Maximum Humidity 79    
Minimum Humidity 30    
Precipitation  
Precipitation 0.01 in 0.02 in 1.08 in (1901)
Month to date precipitation 0.02 0.06  
Year to date precipitation 6.68 8.14  
Snow  
Snow 0.00 in 0.00 in 0.00 in (2006)
Month to date snowfall 0.0 0.0  
Since 1 July snowfall 0.0 0.0  
Snow Depth 0.00 in    
Sea Level Pressure  
Sea Level Pressure 30.05 in    
Wind  
Wind Speed 14 mph (NW)    
Max Wind Speed 31 mph    
Max Gust Speed 39 mph    
Visibility 10 miles    
Events Rain    
T = Trace of Precipitation, MM = Missing Value Source: NWS Daily Summary

Daily Weather History Graph

Daily Weather History Graph

Search for Another Location

Airport:

Trip Planner

Search our weather history database for the weather conditions in past years. The results will help you decide how hot, cold, wet, or windy it might be!

Date:

Astronomy

Oct. 03, 2013 Rise Set
Actual Time 7:45 AM MDT 7:21 PM MDT
Civil Twilight 7:16 AM MDT 7:50 PM MDT
Nautical Twilight 6:43 AM MDT 8:23 PM MDT
Astronomical Twilight 6:09 AM MDT 8:56 PM MDT
Moon 6:21 AM MDT (10/3) 6:33 PM MDT (10/3)
Length of Visible Light 12h 33m
Length of Day
11h 36m
Waning Crescent, 2% of the Moon is Illuminated
Oct 3
Waning Crescent
Oct 4
New
Oct 11
First Quarter
Oct 18
Full
Oct 26
Last Quarter

Hourly Weather History & Observations

Time (MDT) Temp. Windchill Dew Point Humidity Pressure Visibility Wind Dir Wind Speed Gust Speed Precip Events Conditions
12:53 AM 43.0 °F 38.2 °F 35.1 °F 74% 29.93 in 10.0 mi West 8.1 mph - N/A   Partly Cloudy
1:53 AM 43.0 °F 38.2 °F 34.0 °F 71% 29.94 in 10.0 mi WNW 8.1 mph - N/A   Scattered Clouds
2:53 AM 42.1 °F 36.6 °F 34.0 °F 73% 29.96 in 10.0 mi West 9.2 mph - N/A   Mostly Cloudy
3:53 AM 42.1 °F 36.1 °F 37.0 °F 82% 29.97 in 7.0 mi West 10.4 mph - 0.01 in Rain Light Rain
4:53 AM 41.0 °F 35.8 °F 37.0 °F 86% 29.98 in 10.0 mi NW 8.1 mph - 0.00 in   Mostly Cloudy
5:53 AM 41.0 °F 36.4 °F 35.1 °F 79% 29.99 in 10.0 mi WNW 6.9 mph - N/A   Mostly Cloudy
6:53 AM 39.9 °F 35.1 °F 34.0 °F 79% 30.00 in 10.0 mi NW 6.9 mph - N/A   Overcast
7:53 AM 41.0 °F 34.3 °F 34.0 °F 76% 30.01 in 10.0 mi WNW 11.5 mph - N/A   Overcast
8:53 AM 42.1 °F 35.2 °F 35.1 °F 76% 30.03 in 10.0 mi NW 12.7 mph - N/A   Mostly Cloudy
9:53 AM 43.0 °F 36.4 °F 35.1 °F 74% 30.03 in 10.0 mi WNW 12.7 mph - N/A   Overcast
10:53 AM 44.1 °F 35.9 °F 35.1 °F 71% 30.04 in 10.0 mi NW 19.6 mph 25.3 mph N/A   Overcast
11:53 AM 48.0 °F - 35.1 °F 61% 30.03 in 10.0 mi NW 20.7 mph 27.6 mph N/A   Overcast
12:53 PM 50.0 °F - 34.0 °F 54% 30.03 in 10.0 mi NW 24.2 mph 36.8 mph N/A   Overcast
1:53 PM 52.0 °F - 30.9 °F 45% 30.03 in 10.0 mi NNW 25.3 mph 38.0 mph N/A   Mostly Cloudy
2:53 PM 54.0 °F - 30.9 °F 41% 30.03 in 10.0 mi NW 23.0 mph 35.7 mph N/A   Overcast
3:53 PM 57.0 °F - 30.9 °F 37% 30.03 in 10.0 mi NW 19.6 mph 31.1 mph N/A   Overcast
4:53 PM 55.9 °F - 28.9 °F 36% 30.06 in 10.0 mi North 15.0 mph 26.5 mph N/A   Overcast
5:53 PM 55.0 °F - 25.0 °F 31% 30.08 in 10.0 mi NNW 20.7 mph - N/A   Overcast
6:53 PM 54.0 °F - 25.0 °F 33% 30.10 in 10.0 mi NNW 18.4 mph 28.8 mph N/A   Clear
7:53 PM 52.0 °F - 25.0 °F 35% 30.14 in 10.0 mi NNW 15.0 mph - N/A   Clear
8:53 PM 50.0 °F - 27.0 °F 41% 30.18 in 10.0 mi NNW 11.5 mph - N/A   Clear
10:53 PM 45.0 °F 38.9 °F 33.1 °F 63% 30.24 in 10.0 mi WNW 12.7 mph - N/A   Clear
11:53 PM 44.1 °F 38.1 °F 32.0 °F 63% 30.25 in 10.0 mi NW 11.5 mph - N/A   Clear